Погода в Горки

Погода в Горки : погода сейчас, прогноз погоды и архив. Всё, что Вы хотите узнать о погоде в Горки!

Хотите узнать прогноз погоды в Горки? Тогда Вам сюда: Погода в Горки

Поиск расширенной информации на нашем сайте:

Другие новости

Новости СМИ2

Главная страница сайта

Новости сайта

03.07.2017

Напоминаем, что на нашем специализированном сайте Метеоцентр.Азия вы можете получить высокодетализированные автоматические прогнозы погоды по пунктам России, СНГ и мира в авиационном формате (включающие направление и скорость ветра, видимость, явления погоды, количество и форму облачности, нижнюю и верхнюю границу облачности).


Погода в Горки - сегодня

Время (UTC), дата Ветер
(°,м/с) 
Видим.   Явления Облачность Т
(°С)
Тd
(°С)
f(%) Тe
(°С)
Pmin
(гПа)
dP
(гПа)
Po
(мм)
O2
(г/м3)
Тmin Tmax R s Состояние
почвы
18 19.08.17 140 (ЮВ) 6000 м  дым  10/0 верхняя 
[Cs]
+23 +14.1 57 +30  1017.6  -0.2  746  274    +31.1       
21 19.08.17 150 (ЮВ) 16000 м    ясно 
+20.2 +12.3 60 +25  1018.7  0.8  746  278           
00 20.08.17 150 (ЮВ) 18000 м    ясно 
+18.5 +11.1 62 +22  1018.9  746  280           
03 20.08.17 150 (ЮВ) 15000 м    3/0 средняя, верхняя 
[Ac trans|Ci fib]
+17.1 +10.7 66 +20  1018.9  -0.1  746  281           
06 20.08.17 190 (Ю) 20000 м    9/0 средняя 
[Ac und]
+21 +12.8 59 +26  1019.1  0.6  747  277  +16.9         
09 20.08.17 170 (Ю) 15000 м    8/0 средняя 
[Ac und]
+28.7 +11.9 35 +33  1017.9  -0.5  746  270           
12 20.08.17 180 (Ю) 9-12{12}  13000 м    3/0 верхняя 
[Ci fib]
+31 +11.5 30 +34  1017  -0.7  746  268           
15 20.08.17 160 (Ю) 7-11{13}  16000 м    8/0 средняя, верхняя 
[Ac trans|Ci fib]
+29.5 +9.5 29 +30  1016.3  -0.8  745  269           
18 20.08.17 140 (ЮВ) 5{11}  15000 м    3/0 средняя, верхняя 
[Ac trans|Ci fib]
+23.6 +10.2 43 +25  1017.4  0.5  746  275    +31.3       
21 20.08.17 130 (ЮВ) 17000 м    ясно 
+20.8 +10 50 +22  1016.6  -1  745  277           
00 21.08.17 130 (ЮВ) 18000 м    ясно 
+18.2 +10.3 60 +21  1016  -0.8  744  279           
03 21.08.17 120 (ЮВ) 14000 м    4/0 средняя, верхняя 
[Ac trans|Ci fib]
+16.1 +10.9 71 +19  1015  -1.2  743  281           
06 21.08.17 130 (ЮВ) 11000 м    3/0 верхняя 
[Ci fib]
+20.6 +12.8 61 +26  1014.3  -0.3  743  276  +14.9         
09 21.08.17 140 (ЮВ) 20000 м    8/0 средняя 
[Ac cast]
+25.9 +14.1 48 +33  1012.7  -1  743  270           
12 21.08.17 300 (СЗ) 16000 м    6/0 верхняя 
[Ci fib]
+26.7 +13.5 44 +33  1011.8  -0.8  742  270           
18 21.08.17 300 (СЗ) 5{11}  14000 м  {гроза, ливн. осадки}  9/9 420 м кучево-дожд. 
[Cb cap]
+17 +15 88 +26  1012.5  -1.7  742  278    +29     
00 22.08.17 360 (С) 2800 м  дымка{ливн. осадки}  10/10 420 м кучево-дожд. 
[Cb cap]
+16.2 +15.8 97 +27  1012.6  -0.5  742  279         
03 22.08.17 320 (СЗ) 1100 м  дымка{ливн. осадки}  10/10 420 м кучево-дожд. 
[Cb cap]
+15.3 +15 98 +25  1012.5  -0.2  742  280         
06 22.08.17 340 (С) 1900 м  в посл. час туман{ливн. осадки}  10/10 210 м 
[St]
+15 +14.8 99 +24  1012.6  0.1  742  280  +14.8       
12 22.08.17 010 (С) 19000 м  {ливн. осадки}  9/9 420 м кучево-дожд. 
[Cb cap]
+18 +15.6 86 +28  1010.8  -0.5  741  277           
18 22.08.17 330 (СЗ) 5{13}  5000 м  гроза, ливневой дождь  10/10 360 м кучево-дожд. 
[Cb cap]
+14.6 +14.1 97 +22  1009.9  -0.2  740  280    +19.2  26     
00 23.08.17 340 (С) 8-11{12}  9000 м  слаб. ливневой дождь{гроза}  10/10 400 м кучево-дожд. 
[Cb cap]
+13.3 +12.4 94 +17  1005.3  -2.2  736  280      0.3     
03 23.08.17 320 (СЗ) 5{12}  6000 м  слаб. ливневой дождь  10/10 400 м кучево-дожд. 
[Cb cap]
+12.9 +12.3 96 +17  1003  -2.3  734  280      19     
06 23.08.17 300 (СЗ) 6{11}  8000 м  слаб. ливневой дождь  10/10 210 м 
[Frnb]
+12.8 +12.2 96 +17  1001.2  -1.8  733  280  +12.7    41     
12 23.08.17 280 (З) 6{12}  4200 м  слаб. ливневой дождь  10/10 330 м 
[Frnb]
+13.5 +12.7 95 +18  1002.3  734  279      0.4     
Время (UTC), дата Ветер
(°,м/с) 
Видим.   Явления Облачность Т
(°С)
Тd
(°С)
f(%) Тe
(°С)
Pmin
(гПа)
dP
(гПа)
Po
(мм)
O2
(г/м3)
Тmin Tmax R s Состояние
почвы

Для получения пояснительной информации подведите курсор к названию столбца.

ПОГОДА в Горки - архив

Всё, что Вы хотите узнать о погоде в Горки - удобно и подробно!

Выберите нужную дату (начиная с 1 января 2015* года) и нажмите кнопку "Найти".
Будут отображены архивные сводки погоды по пункту Горки, начиная с указанной даты.


Отображать данные в формате CSV (для использования в таблицах Excel)


Внимание! Наш архив погоды предназначен исключительно для личного некоммерческого использования в познавательных целях. Если Вам необходимы официальные справки о состоянии погоды (для производственных, юридических, коммерческих и т.п. целей), обращайтесь в органы Росгидромета.

*Примечание: данная дата относится к архиву по метеостанциям СССР (Россия, СНГ, Балтия).
Архив по метеостанциям Зарубежной Европы и Азии (кроме Китая) хранится 10 дней, по другим регионам земного шара (Китай, Африка, Америка, Австралия, Океания) - 1 день.

Горки - район местоположения метеостанции


Название, широта, долгота, высота метеостанции:
Горки 54.3°ш. 30.9°д. 205 м над ур. моря [Беларусь]

Дополнительная информация

В oтличие oт бoльшинства пoгoдных сайтoв мы публикуем пoдрoбную метеoинфoрмацию в детальнoм прoфессиoнальнoм фoрмате.

Характеристики температуры и влажнoсти вoздуха измеряются на высoте 2 м в тени вдали oт зданий и деревьев.
Скoрoсть ветра измеряется на высoте 10 м (на урoвне рoста челoвека скoрoсть ветра ниже в 1.5-2 раза). Если метеoстанция нахoдится в гoрoде или в лесу, тo скoрoсть ветра занижена на 2-4 м/с пo сравнению с oткрытым местoм. Скoрoсть ветра над акватoриями крупных рек и oзёр, а также на вершинах хoлмoв на 2-5 м/с выше, чем в oбычных услoвиях.
Атмoсфернoе давление в разных тoчках местнoсти мoжет значительнo oтличаться oт давления на метеoстанции, в зависимoсти oт услoвий рельефа (при пoдъёме на 10 м давление пoнижается примернo на 1 мм рт.ст.).